Date String (YYYY-MM-DD hh:mm:ss) UTC,Instrument flags,Ambient pressure (hPa),Sample flow (lpm),Bypass flow (lpm),Sample temperature (°C),Ambient temperature (°C),ASC tube jacket temperature (°C),LED temperature (°C),Box temperature (°C),Sample RH (%),Span deviation,Mass concentration (μg/m³),Mass concentration (μg/m³),Mass concentration (μg/m³)
DateTimeUTC,F1_M11,P_M11,Q1_M11,Q2_M11,T1_M11,T2_M11,T3_M11,T4_M11,T5_M11,U1_M11,ZSPAN_M11,X0_M11,X2_M11,X1_M11
2022-01-05 20:00:00,,0814.4,4.99,0.00,23.1,22.7,00.0,32.1,24.8,11.1,0000.0,0007.73,0004.54,0004.23
2022-01-05 20:01:00,,0814.4,5.01,0.00,23.2,23.4,00.0,32.2,25.0,10.8,0000.0,0007.76,0004.52,0004.22
2022-01-05 20:02:00,,0814.5,5.00,0.00,23.3,24.0,00.0,32.2,25.2,10.8,0000.0,0007.75,0004.52,0004.23
2022-01-05 20:03:00,,0814.9,5.00,0.00,23.4,23.9,00.0,32.2,25.3,10.8,0000.0,0007.64,0004.54,0004.23
2022-01-05 20:04:00,,0815.2,5.00,0.00,23.4,23.7,00.0,32.2,25.3,10.8,0000.0,0007.58,0004.53,0004.23
2022-01-05 20:05:00,,0815.0,5.00,0.00,23.4,23.5,00.0,32.3,25.2,10.8,0000.0,0007.67,0004.54,0004.21
2022-01-05 20:06:00,,0814.9,5.00,0.00,23.4,23.3,00.0,32.3,25.1,10.7,0000.0,0007.54,0004.53,0004.19
2022-01-05 20:07:00,,0814.9,4.99,0.00,23.4,23.2,00.0,32.3,25.1,10.7,-000.6,0007.54,0004.55,0004.19
2022-01-05 20:08:00,,0814.9,5.00,0.00,23.3,23.0,00.0,32.3,25.0,10.8,-001.6,0007.50,0004.55,0004.20
2022-01-05 20:09:00,,0815.0,5.00,0.00,23.3,23.0,00.0,32.3,25.0,10.7,-000.9,0007.60,0004.57,0004.22
2022-01-05 20:10:00,,0815.1,5.00,0.00,23.3,22.9,00.0,32.3,25.1,10.9,0000.0,0007.66,0004.56,0004.22
2022-01-05 20:11:00,,0815.0,5.00,0.00,23.3,22.8,00.0,32.3,25.0,11.0,0000.0,0008.07,0004.58,0004.23
2022-01-05 20:12:00,,0815.0,5.00,0.00,23.3,22.8,00.0,32.3,25.0,10.8,0000.0,0008.58,0004.60,0004.25
2022-01-05 20:13:00,,0815.0,4.99,0.00,23.3,22.7,00.0,32.3,24.9,10.7,0000.0,0008.76,0004.62,0004.28
2022-01-05 20:14:00,,0814.9,5.00,0.00,23.2,22.6,00.0,32.3,24.9,10.8,0000.0,0008.78,0004.64,0004.31
2022-01-05 20:15:00,,0814.9,5.00,0.00,23.2,22.6,00.0,32.2,24.8,10.8,0000.0,0008.83,0004.69,0004.34
2022-01-05 20:16:00,,0814.9,5.01,0.00,23.2,22.5,00.0,32.2,24.8,10.8,0000.0,0008.91,0004.74,0004.36
2022-01-05 20:17:00,,0815.0,4.99,0.00,23.1,22.4,00.0,32.2,24.8,10.8,0000.0,0009.00,0004.77,0004.37
2022-01-05 20:18:00,,0815.0,5.01,0.00,23.1,22.4,00.0,32.2,24.7,10.9,0000.0,0009.02,0004.76,0004.35
2022-01-05 20:19:00,,0814.9,4.99,0.00,23.1,22.4,00.0,32.2,24.7,10.9,0000.0,0009.16,0004.75,0004.33
2022-01-05 20:20:00,,0814.9,5.02,0.00,23.1,22.9,00.0,32.2,24.9,10.8,0000.0,0009.33,0004.73,0004.28
2022-01-05 20:21:00,,0815.0,4.99,0.00,23.3,23.7,00.0,32.3,25.1,10.7,0000.0,0009.83,0004.69,0004.23
2022-01-05 20:22:00,,0815.2,5.01,0.00,23.4,24.1,00.0,32.3,25.3,10.8,0000.0,0009.53,0004.65,0004.18
2022-01-05 20:23:00,,0815.2,5.00,0.00,23.4,23.8,00.0,32.3,25.3,10.8,0000.0,0009.20,0004.62,0004.12
2022-01-05 20:24:00,,0815.2,5.00,0.00,23.4,23.6,00.0,32.3,25.1,10.6,0000.0,0009.19,0004.55,0004.05
2022-01-05 20:25:00,,0815.1,5.00,0.00,23.4,23.4,00.0,32.3,25.0,10.6,0000.0,0009.08,0004.47,0003.99
2022-01-05 20:26:00,,0815.3,5.00,0.00,23.3,23.2,00.0,32.3,25.0,10.5,0000.0,0008.98,0004.39,0003.92
2022-01-05 20:27:00,,0815.3,5.00,0.00,23.3,23.0,00.0,32.3,24.9,10.6,0000.0,0008.90,0004.30,0003.85
2022-01-05 20:28:00,,0815.4,5.00,0.00,23.3,22.9,00.0,32.3,24.9,10.6,0000.0,0008.83,0004.25,0003.80
2022-01-05 20:29:00,,0815.3,5.01,0.00,23.2,22.8,00.0,32.3,24.8,10.5,0000.0,0008.89,0004.20,0003.77
2022-01-05 20:30:00,,0815.4,4.99,0.00,23.2,22.6,00.0,32.3,24.8,10.6,0000.0,0008.76,0004.17,0003.74
2022-01-05 20:31:00,,0815.4,5.00,0.00,23.2,22.7,00.0,32.3,24.8,10.6,0000.0,0008.49,0004.13,0003.74
2022-01-05 20:32:00,,0815.4,5.00,0.00,23.3,23.3,00.0,32.3,25.0,10.5,0000.7,0007.79,0004.10,0003.74
2022-01-05 20:33:00,,0815.4,5.01,0.00,23.4,23.9,00.0,32.4,25.3,10.5,0000.1,0007.99,0004.07,0003.74
2022-01-05 20:34:00,,0815.5,4.99,0.00,23.5,23.8,00.0,32.4,25.3,10.4,-000.0,0007.68,0004.04,0003.72
2022-01-05 20:35:00,,0815.4,4.99,0.00,23.5,23.6,00.0,32.4,25.2,10.4,-000.1,0007.47,0004.06,0003.72
2022-01-05 20:36:00,,0815.4,5.02,0.00,23.4,23.4,00.0,32.4,25.1,10.4,0000.0,0007.67,0004.06,0003.71
2022-01-05 20:37:00,,0815.3,4.98,0.00,23.4,23.2,00.0,32.4,25.0,10.4,0000.0,0007.67,0004.03,0003.69
2022-01-05 20:38:00,,0815.4,5.01,0.00,23.3,23.0,00.0,32.4,24.9,10.3,0000.0,0007.60,0003.99,0003.68
2022-01-05 20:39:00,,0815.7,5.01,0.00,23.3,22.9,00.0,32.4,24.9,10.3,0000.0,0007.52,0003.95,0003.66
2022-01-05 20:40:00,,0815.6,4.99,0.00,23.3,22.8,00.0,32.3,24.9,10.4,0000.0,0007.47,0003.91,0003.63
2022-01-05 20:41:00,,0815.8,5.02,0.00,23.3,23.0,00.0,32.3,25.0,10.3,0000.0,0007.61,0003.88,0003.60
2022-01-05 20:42:00,,0816.1,4.99,0.00,23.4,23.7,00.0,32.4,25.2,10.2,0000.0,0008.25,0003.84,0003.56
2022-01-05 20:43:00,,0816.1,5.00,0.00,23.5,24.3,00.0,32.4,25.5,10.2,0000.0,0008.36,0003.82,0003.53
2022-01-05 20:44:00,,0815.5,5.00,0.00,23.6,24.1,00.0,32.4,25.5,10.2,0000.0,0008.55,0003.79,0003.49
2022-01-05 20:45:00,,0816.0,5.01,0.00,23.6,23.8,00.0,32.5,25.3,10.2,0000.0,0009.02,0003.77,0003.45
2022-01-05 20:46:00,,0815.8,4.99,0.00,23.5,23.5,00.0,32.5,25.2,10.2,0000.0,0008.97,0003.71,0003.40
2022-01-05 20:47:00,,0815.7,5.00,0.00,23.5,23.3,00.0,32.5,25.1,10.3,0000.0,0009.07,0003.65,0003.34
2022-01-05 20:48:00,,0815.7,5.00,0.00,23.4,23.1,00.0,32.4,25.1,10.4,0000.0,0009.19,0003.61,0003.30
2022-01-05 20:49:00,,0815.8,5.01,0.00,23.5,23.4,00.0,32.5,25.2,10.4,0000.0,0009.25,0003.58,0003.26
2022-01-05 20:50:00,,0816.0,5.00,0.00,23.6,24.1,00.0,32.5,25.5,10.4,0000.0,0009.65,0003.57,0003.22
2022-01-05 20:51:00,,0816.0,5.01,0.00,23.7,24.2,00.0,32.5,25.6,10.3,0000.0,0009.50,0003.55,0003.19
2022-01-05 20:52:00,,0816.1,4.99,0.00,23.7,24.0,00.0,32.6,25.5,10.3,0000.0,0009.28,0003.55,0003.16
2022-01-05 20:53:00,,0816.0,5.01,0.00,23.7,23.7,00.0,32.6,25.5,10.3,0000.0,0008.63,0003.54,0003.13
2022-01-05 20:54:00,,0816.1,5.00,0.00,23.6,23.5,00.0,32.6,25.3,10.3,0000.0,0008.42,0003.50,0003.10
2022-01-05 20:55:00,,0816.1,5.00,0.00,23.6,23.3,00.0,32.6,25.2,10.3,0000.0,0008.04,0003.48,0003.06
2022-01-05 20:56:00,,0816.2,4.99,0.00,23.5,23.1,00.0,32.6,25.1,10.3,0000.0,0007.30,0003.43,0003.02
2022-01-05 20:57:00,,0816.3,5.00,0.00,23.5,23.4,00.0,32.6,25.2,10.4,0000.0,0007.38,0003.42,0002.98
2022-01-05 20:58:00,,0816.4,5.00,0.00,23.7,24.1,00.0,32.6,25.5,10.4,0000.0,0007.28,0003.42,0002.95
2022-01-05 20:59:00,,0816.4,4.99,0.00,23.8,24.3,00.0,32.6,25.6,10.4,0000.0,0007.67,0003.39,0002.94
